Weather History for KSPS - February, 2013

Change the Weather History Date:

Wednesday, February 6, 2013

  Actual Average Record
Temperature  
Mean Temperature 65 °F 44 °F  
Max Temperature 76 °F 56 °F 83 °F (1950)
Min Temperature 53 °F 32 °F 10 °F (1989)
Degree Days  
Heating Degree Days 0 21  
Month to date heating degree days 80 128  
Since 1 July heating degree days 1779 2038  
Growing Degree Days 14 (Base 50)    
Moisture  
Dew Point 55 °F    
Average Humidity 73    
Maximum Humidity 100    
Minimum Humidity 46    
Precipitation  
Precipitation 0.01 in 0.05 in 0.58 in (2005)
Month to date precipitation 0.01 0.27  
Year to date precipitation 0.65 1.41  
Snow  
Snow 0.00 in 0.10 in - ()
Month to date snowfall 0.0 0.2  
Since 1 July snowfall 3.5 2.9  
Snow Depth -    
Sea Level Pressure  
Sea Level Pressure 29.91 in    
Wind  
Wind Speed 10 mph (SE)    
Max Wind Speed 23 mph    
Max Gust Speed 28 mph    
Visibility 6 miles    
Events Fog , Thunderstorm    
T = Trace of Precipitation, MM = Missing Value Source: NWS Daily Summary

Daily Weather History Graph

Daily Weather History Graph

Search for Another Location

Airport or City:

Trip Planner

Search our weather history database for the weather conditions in past years. The results will help you decide how hot, cold, wet, or windy it might be!

Date:

Astronomy

Feb. 06, 2013 Rise Set
Actual Time 7:26 AM CST 6:09 PM CST
Civil Twilight 7:00 AM CST 6:35 PM CST
Nautical Twilight 6:31 AM CST 7:05 PM CST
Astronomical Twilight 6:01 AM CST 7:34 PM CST
Moon 4:06 AM CST (2/6) 2:34 PM CST (2/6)
Length of Visible Light 11h 34m
Length of Day
10h 42m
Waning Crescent, 17% of the Moon is Illuminated
Feb 6
Waning Crescent
Feb 10
New
Feb 17
First Quarter
Feb 25
Full
Mar 4
Last Quarter

Hourly Weather History & Observations

Time (CST) Temp. Dew Point Humidity Pressure Visibility Wind Dir Wind Speed Gust Speed Precip Events Conditions
12:52 AM 55.0 °F 53.1 °F 93% 29.99 in 6.0 mi ESE 6.9 mph - N/A   Overcast
1:52 AM 55.0 °F 54.0 °F 96% 29.98 in 4.0 mi SE 11.5 mph - N/A   Overcast
2:28 AM 55.4 °F 53.6 °F 94% 29.99 in 4.0 mi SSE 8.1 mph - N/A   Overcast
2:52 AM 55.0 °F 54.0 °F 96% 29.97 in 3.0 mi SSE 5.8 mph - N/A   Overcast
3:16 AM 55.4 °F 53.6 °F 94% 29.98 in 2.5 mi SE 6.9 mph - N/A   Overcast
3:27 AM 53.6 °F 53.6 °F 100% 29.99 in 1.0 mi ESE 8.1 mph - N/A   Overcast
3:39 AM 53.6 °F 53.6 °F 100% 29.99 in 0.8 mi ESE 5.8 mph - N/A   Overcast
3:52 AM 54.0 °F 54.0 °F 100% 29.98 in 0.5 mi SE 8.1 mph - N/A Fog Fog
4:52 AM 54.0 °F 54.0 °F 100% 29.98 in 0.2 mi ESE 4.6 mph - N/A Fog Fog
5:52 AM 54.0 °F 54.0 °F 100% 29.97 in 0.2 mi Calm Calm - N/A Fog Fog
6:52 AM 54.0 °F 54.0 °F 100% 29.97 in 0.5 mi Calm Calm - 0.01 in Fog Fog
7:52 AM 54.0 °F 54.0 °F 100% 29.97 in 0.2 mi East 4.6 mph - N/A Fog Fog
8:52 AM 55.9 °F 55.9 °F 100% 29.98 in 0.8 mi ESE 8.1 mph - N/A   Overcast
9:01 AM 55.4 °F 55.4 °F 100% 29.99 in 1.0 mi SE 8.1 mph - N/A   Overcast
9:48 AM 57.2 °F 57.2 °F 100% 29.99 in 1.2 mi SE 9.2 mph - N/A   Overcast
9:52 AM 57.0 °F 57.0 °F 100% 29.98 in 1.2 mi SE 9.2 mph - N/A   Overcast
10:24 AM 57.2 °F 57.2 °F 100% 29.98 in 2.0 mi SE 10.4 mph - N/A   Overcast
10:38 AM 59.0 °F 57.2 °F 94% 29.98 in 3.0 mi SE 12.7 mph - N/A   Overcast
10:43 AM 57.2 °F 57.2 °F 100% 29.98 in 3.0 mi SE 11.5 mph - N/A   Overcast
10:52 AM 57.9 °F 57.9 °F 100% 29.97 in 4.0 mi SSE 9.2 mph - N/A   Overcast
11:25 AM 60.8 °F 59.0 °F 94% 29.96 in 5.0 mi SSE 12.7 mph - N/A   Overcast
11:37 AM 59.0 °F 57.2 °F 94% 29.96 in 5.0 mi SSE 15.0 mph - N/A   Mostly Cloudy
11:52 AM 62.1 °F 57.0 °F 84% 29.94 in 6.0 mi SSE 15.0 mph - N/A   Haze
12:31 PM 66.2 °F 57.2 °F 73% 29.92 in 7.0 mi SSE 10.4 mph 21.9 mph N/A   Mostly Cloudy
12:35 PM 66.2 °F 57.2 °F 73% 29.92 in 7.0 mi SSE 13.8 mph 21.9 mph N/A   Mostly Cloudy
12:52 PM 66.9 °F 57.0 °F 70% 29.89 in 7.0 mi South 10.4 mph - N/A   Mostly Cloudy
1:52 PM 71.1 °F 55.0 °F 57% 29.85 in 10.0 mi South 11.5 mph - N/A   Mostly Cloudy
2:52 PM 72.0 °F 52.0 °F 49% 29.81 in 10.0 mi South 11.5 mph - N/A   Mostly Cloudy
3:52 PM 73.9 °F 52.0 °F 46% 29.78 in 10.0 mi SSE 18.4 mph - N/A   Scattered Clouds
4:52 PM 73.9 °F 52.0 °F 46% 29.77 in 10.0 mi SSE 15.0 mph - N/A   Scattered Clouds
5:52 PM 70.0 °F 52.0 °F 53% 29.77 in 10.0 mi SSE 12.7 mph - N/A   Partly Cloudy
6:52 PM 64.0 °F 51.1 °F 63% 29.78 in 10.0 mi SE 10.4 mph - N/A   Partly Cloudy
7:52 PM 63.0 °F 52.0 °F 67% 29.80 in 10.0 mi SE 10.4 mph - N/A   Scattered Clouds
8:52 PM 61.0 °F 53.1 °F 75% 29.82 in 10.0 mi ESE 15.0 mph - N/A   Mostly Cloudy
9:20 PM 60.8 °F 53.6 °F 77% 29.85 in 10.0 mi SE 11.5 mph - N/A Thunderstorm Overcast
9:37 PM 60.8 °F 53.6 °F 77% 29.86 in 10.0 mi SE 9.2 mph - N/A   Mostly Cloudy
9:52 PM 61.0 °F 54.0 °F 78% 29.84 in 10.0 mi SE 11.5 mph - N/A   Mostly Cloudy
10:20 PM 62.6 °F 55.4 °F 77% 29.85 in 10.0 mi SSE 17.3 mph - N/A   Overcast
10:52 PM 62.1 °F 55.9 °F 80% 29.83 in 10.0 mi SE 13.8 mph - N/A   Overcast
11:52 PM 60.8 °F 57.2 °F 88% 29.85 in 10.0 mi SSE 13.8 mph - N/A   Overcast